| time (UTC) | temp F | wind direction | speed MPH | gust MPH | rain 1hr in | rain 24hr in | rain mn in | humidity % | barometer mb |
| 20260510205029 | 71 | 0.0 | 1.0 | 0.00 | 0.00 | 0.00 | 58 | 1010.0 | |
| 20260510204032 | 72 | 0.0 | 0.0 | 0.00 | 0.00 | 0.00 | 52 | 1009.9 | |
| 20260510203017 | 71 | 0.0 | 0.0 | 0.00 | 0.00 | 0.00 | 52 | 1010.0 | |
| 20260510202021 | 72 | 270 | 0.0 | 1.0 | 0.00 | 0.00 | 0.00 | 50 | 1009.9 |
| 20260510201024 | 73 | 266 | 1.0 | 8.0 | 0.00 | 0.00 | 0.00 | 48 | 1009.6 |
| 20260510200027 | 74 | 45 | 0.0 | 2.0 | 0.00 | 0.00 | 0.00 | 47 | 1009.9 |
| 20260510195050 | 77 | 154 | 1.0 | 9.0 | 0.00 | 0.00 | 0.00 | 44 | 1010.0 |
| 20260510194015 | 78 | 163 | 1.0 | 8.0 | 0.00 | 0.00 | 0.00 | 44 | 1010.1 |
| 20260510193018 | 75 | 0.0 | 0.0 | 0.00 | 0.00 | 0.00 | 46 | 1010.2 | |
| 20260510192022 | 73 | 222 | 4.0 | 8.0 | 0.00 | 0.00 | 0.00 | 48 | 1010.1 |
| 20260510191025 | 76 | 173 | 3.0 | 8.0 | 0.00 | 0.00 | 0.00 | 46 | 1010.2 |
| 20260510190028 | 75 | 201 | 1.0 | 6.0 | 0.00 | 0.00 | 0.00 | 47 | 1010.2 |
| 20260510185026 | 76 | 232 | 2.0 | 8.0 | 0.00 | 0.00 | 0.00 | 48 | 1010.3 |
| 20260510184017 | 74 | 169 | 0.0 | 3.0 | 0.00 | 0.00 | 0.00 | 50 | 1010.5 |
| 20260510183020 | 74 | 165 | 4.0 | 7.0 | 0.00 | 0.00 | 0.00 | 49 | 1010.7 |
| 20260510182038 | 73 | 242 | 3.0 | 5.0 | 0.00 | 0.00 | 0.00 | 51 | 1010.8 |
| 20260510181015 | 74 | 222 | 2.0 | 6.0 | 0.00 | 0.00 | 0.00 | 51 | 1010.9 |
| 20260510180030 | 73 | 198 | 2.0 | 5.0 | 0.00 | 0.00 | 0.00 | 52 | 1011.1 |
| 20260510175016 | 72 | 188 | 2.0 | 10.0 | 0.00 | 0.00 | 0.00 | 52 | 1011.2 |
| 20260510174019 | 71 | 0.0 | 0.0 | 0.00 | 0.00 | 0.00 | 55 | 1011.3 | |
| 20260510173022 | 71 | 187 | 0.0 | 2.0 | 0.00 | 0.00 | 0.00 | 55 | 1011.4 |
| 20260510172025 | 70 | 259 | 1.0 | 4.0 | 0.00 | 0.00 | 0.00 | 56 | 1011.4 |
| 20260510171029 | 70 | 230 | 3.0 | 6.0 | 0.00 | 0.00 | 0.00 | 56 | 1011.5 |
| 20260510170032 | 70 | 220 | 2.0 | 4.0 | 0.00 | 0.00 | 0.00 | 55 | 1011.7 |
| 20260510165017 | 68 | 258 | 3.0 | 7.0 | 0.00 | 0.00 | 0.00 | 59 | 1011.6 |
| 20260510164020 | 68 | 292 | 2.0 | 4.0 | 0.00 | 0.00 | 0.00 | 61 | 1011.6 |
| 20260510163024 | 68 | 311 | 2.0 | 5.0 | 0.00 | 0.00 | 0.00 | 58 | 1011.8 |
| 20260510162027 | 68 | 225 | 3.0 | 7.0 | 0.00 | 0.00 | 0.00 | 58 | 1011.7 |
| 20260510161030 | 69 | 228 | 1.0 | 5.0 | 0.00 | 0.00 | 0.00 | 58 | 1011.8 |
| 20260510160015 | 67 | 178 | 2.0 | 7.0 | 0.00 | 0.00 | 0.00 | 60 | 1011.9 |
| 20260510155019 | 68 | 143 | 1.0 | 4.0 | 0.00 | 0.00 | 0.00 | 60 | 1011.9 |
| 20260510154022 | 67 | 135 | 1.0 | 4.0 | 0.00 | 0.00 | 0.00 | 60 | 1011.9 |
| 20260510153105 | 67 | 100 | 1.0 | 4.0 | 0.00 | 0.00 | 0.00 | 62 | 1011.8 |
| 20260510152109 | 65 | 241 | 1.0 | 4.0 | 0.00 | 0.00 | 0.00 | 63 | 1012.0 |
| 20260510151026 | 66 | 261 | 1.0 | 3.0 | 0.00 | 0.00 | 0.00 | 63 | 1012.2 |
| 20260510150017 | 64 | 0.0 | 0.0 | 0.00 | 0.00 | 0.00 | 65 | 1012.1 | |
| 20260510145020 | 65 | 126 | 0.0 | 2.0 | 0.00 | 0.00 | 0.00 | 64 | 1012.2 |
| 20260510144018 | 63 | 150 | 1.0 | 4.0 | 0.00 | 0.00 | 0.00 | 66 | 1012.2 |
| 20260510143015 | 62 | 182 | 1.0 | 4.0 | 0.00 | 0.00 | 0.00 | 68 | 1012.2 |
| 20260510142030 | 60 | 249 | 1.0 | 4.0 | 0.00 | 0.00 | 0.00 | 70 | 1012.4 |
| 20260510141015 | 59 | 277 | 2.0 | 4.0 | 0.00 | 0.00 | 0.00 | 73 | 1012.5 |
| 20260510140019 | 58 | 23 | 1.0 | 3.0 | 0.00 | 0.00 | 0.00 | 75 | 1012.5 |
| 20260510135022 | 57 | 265 | 2.0 | 6.0 | 0.00 | 0.00 | 0.00 | 76 | 1012.5 |
| 20260510134026 | 56 | 245 | 2.0 | 5.0 | 0.00 | 0.00 | 0.00 | 78 | 1012.5 |
| 20260510133029 | 56 | 270 | 0.0 | 3.0 | 0.00 | 0.00 | 0.00 | 79 | 1012.4 |
| 20260510132032 | 56 | 225 | 0.0 | 3.0 | 0.00 | 0.00 | 0.00 | 80 | 1012.4 |
| 20260510131017 | 55 | 270 | 2.0 | 5.0 | 0.00 | 0.00 | 0.00 | 80 | 1012.4 |
| 20260510130020 | 55 | 222 | 2.0 | 5.0 | 0.00 | 0.00 | 0.00 | 82 | 1012.3 |
| 20260510125024 | 55 | 203 | 1.0 | 4.0 | 0.00 | 0.00 | 0.00 | 83 | 1012.4 |
| 20260510124027 | 55 | 0.0 | 0.0 | 0.00 | 0.00 | 0.00 | 84 | 1012.3 | |
| 20260510123050 | 55 | 0.0 | 0.0 | 0.00 | 0.00 | 0.00 | 84 | 1012.3 | |
| 20260510122056 | 54 | 0.0 | 1.0 | 0.00 | 0.00 | 0.00 | 85 | 1012.3 | |
| 20260510121019 | 54 | 203 | 0.0 | 3.0 | 0.00 | 0.00 | 0.00 | 86 | 1012.0 |
| 20260510120022 | 53 | 0.0 | 0.0 | 0.00 | 0.00 | 0.00 | 88 | 1012.0 | |
| 20260510115026 | 53 | 248 | 0.0 | 2.0 | 0.00 | 0.00 | 0.00 | 90 | 1012.3 |
| 20260510114029 | 53 | 0.0 | 0.0 | 0.00 | 0.00 | 0.00 | 95 | 1012.4 | |
| 20260510113026 | 53 | 0.0 | 0.0 | 0.00 | 0.00 | 0.00 | 95 | 1012.3 | |
| 20260510112017 | 52 | 0.0 | 0.0 | 0.00 | 0.00 | 0.00 | 95 | 1011.8 | |
| 20260510111041 | 52 | 0.0 | 0.0 | 0.00 | 0.00 | 0.00 | 95 | 1011.8 | |
| 20260510110018 | 52 | 0.0 | 0.0 | 0.00 | 0.00 | 0.00 | 95 | 1011.6 | |
| 20260510105015 | 51 | 0.0 | 0.0 | 0.00 | 0.00 | 0.00 | 95 | 1011.6 | |
| 20260510104031 | 50 | 0.0 | 0.0 | 0.00 | 0.00 | 0.00 | 95 | 1011.5 | |
| 20260510103016 | 50 | 0.0 | 0.0 | 0.00 | 0.00 | 0.00 | 95 | 1011.5 | |
| 20260510102019 | 50 | 0.0 | 0.0 | 0.00 | 0.00 | 0.00 | 95 | 1011.7 | |
| 20260510101023 | 50 | 0.0 | 0.0 | 0.00 | 0.00 | 0.00 | 95 | 1011.7 | |
| 20260510100026 | 50 | 0.0 | 0.0 | 0.00 | 0.00 | 0.00 | 95 | 1011.6 | |
| 20260510095029 | 50 | 225 | 0.0 | 3.0 | 0.00 | 0.00 | 0.00 | 95 | 1011.6 |
| 20260510094033 | 50 | 195 | 0.0 | 2.0 | 0.00 | 0.00 | 0.00 | 95 | 1011.5 |
| 20260510093018 | 50 | 0.0 | 0.0 | 0.00 | 0.00 | 0.00 | 95 | 1011.4 | |
| 20260510092021 | 50 | 0.0 | 0.0 | 0.00 | 0.00 | 0.00 | 94 | 1011.3 | |
| 20260510091025 | 49 | 0.0 | 0.0 | 0.00 | 0.00 | 0.00 | 93 | 1011.4 | |
| 20260510090048 | 49 | 0.0 | 0.0 | 0.00 | 0.00 | 0.00 | 92 | 1011.2 | |
| 20260510085051 | 49 | 0.0 | 0.0 | 0.00 | 0.00 | 0.00 | 91 | 1011.3 | |
| 20260510084016 | 48 | 0.0 | 0.0 | 0.00 | 0.00 | 0.00 | 90 | 1011.3 | |
| 20260510083020 | 48 | 0.0 | 0.0 | 0.00 | 0.00 | 0.00 | 89 | 1011.2 | |
| 20260510082023 | 48 | 0.0 | 0.0 | 0.00 | 0.00 | 0.00 | 89 | 1011.2 | |
| 20260510081106 | 48 | 0.0 | 0.0 | 0.00 | 0.00 | 0.00 | 89 | 1011.2 | |
| 20260510080030 | 48 | 0.0 | 0.0 | 0.00 | 0.00 | 0.00 | 89 | 1011.1 | |
| 20260510075015 | 48 | 0.0 | 0.0 | 0.00 | 0.00 | 0.00 | 88 | 1011.0 | |
| 20260510074038 | 48 | 0.0 | 0.0 | 0.00 | 0.00 | 0.00 | 88 | 1010.9 | |
| 20260510073041 | 48 | 0.0 | 0.0 | 0.00 | 0.00 | 0.00 | 88 | 1010.7 | |
| 20260510072019 | 48 | 0.0 | 0.0 | 0.00 | 0.00 | 0.00 | 88 | 1010.8 | |
| 20260510071016 | 48 | 0.0 | 0.0 | 0.00 | 0.00 | 0.00 | 88 | 1011.0 | |
| 20260510070032 | 48 | 0.0 | 0.0 | 0.00 | 0.00 | 0.00 | 88 | 1010.8 | |
| 20260510065017 | 47 | 0.0 | 0.0 | 0.00 | 0.00 | 0.00 | 88 | 1010.9 | |
| 20260510064020 | 47 | 0.0 | 0.0 | 0.00 | 0.00 | 0.00 | 88 | 1010.9 | |
| 20260510063024 | 47 | 0.0 | 0.0 | 0.00 | 0.00 | 0.00 | 88 | 1010.9 | |
| 20260510062027 | 47 | 0.0 | 0.0 | 0.00 | 0.00 | 0.00 | 88 | 1010.7 | |
| 20260510061030 | 47 | 0.0 | 0.0 | 0.00 | 0.00 | 0.00 | 88 | 1011.0 | |
| 20260510060015 | 48 | 0.0 | 0.0 | 0.00 | 0.00 | 0.00 | 88 | 1011.3 | |
| 20260510055018 | 48 | 0.0 | 0.0 | 0.00 | 0.00 | 0.00 | 88 | 1011.4 | |
| 20260510054042 | 48 | 0.0 | 0.0 | 0.00 | 0.00 | 0.00 | 87 | 1011.5 | |
| 20260510053045 | 48 | 0.0 | 0.0 | 0.00 | 0.00 | 0.00 | 87 | 1011.5 | |
| 20260510052028 | 48 | 0.0 | 0.0 | 0.00 | 0.00 | 0.00 | 87 | 1011.5 | |
| 20260510051031 | 48 | 0.0 | 0.0 | 0.00 | 0.00 | 0.00 | 87 | 1011.6 | |
| 20260510050017 | 48 | 0.0 | 0.0 | 0.00 | 0.00 | 0.00 | 87 | 1011.5 | |
| 20260510045020 | 48 | 0.0 | 0.0 | 0.00 | 0.00 | 0.00 | 87 | 1011.5 | |
| 20260510044023 | 48 | 0.0 | 0.0 | 0.00 | 0.00 | 0.00 | 87 | 1011.5 | |
| 20260510043027 | 48 | 0.0 | 0.0 | 0.00 | 0.00 | 0.00 | 87 | 1011.5 | |
| 20260510042050 | 48 | 0.0 | 0.0 | 0.00 | 0.00 | 0.00 | 87 | 1011.3 | |
| 20260510041015 | 48 | 0.0 | 0.0 | 0.00 | 0.00 | 0.00 | 86 | 1011.9 | |
| 20260510040019 | 48 | 0.0 | 0.0 | 0.00 | 0.00 | 0.00 | 86 | 1011.8 | |
| 20260510035022 | 48 | 0.0 | 0.0 | 0.00 | 0.00 | 0.00 | 85 | 1011.9 | |
| 20260510034019 | 48 | 0.0 | 0.0 | 0.00 | 0.00 | 0.00 | 85 | 1011.9 | |
| 20260510033016 | 48 | 0.0 | 0.0 | 0.00 | 0.00 | 0.00 | 85 | 1012.0 | |
| 20260510032032 | 48 | 0.0 | 0.0 | 0.00 | 0.00 | 0.00 | 85 | 1012.3 | |
| 20260510031017 | 48 | 0.0 | 0.0 | 0.00 | 0.00 | 0.00 | 85 | 1012.4 | |
| 20260510030020 | 48 | 0.0 | 0.0 | 0.00 | 0.00 | 0.00 | 85 | 1012.4 | |
| 20260510025023 | 48 | 0.0 | 0.0 | 0.00 | 0.00 | 0.00 | 85 | 1012.4 | |
| 20260510024027 | 47 | 0.0 | 0.0 | 0.00 | 0.00 | 0.00 | 85 | 1012.4 | |
| 20260510023030 | 47 | 0.0 | 0.0 | 0.00 | 0.00 | 0.00 | 85 | 1012.5 | |
| 20260510022015 | 47 | 0.0 | 0.0 | 0.00 | 0.00 | 0.00 | 84 | 1012.6 | |
| 20260510021039 | 47 | 0.0 | 0.0 | 0.00 | 0.00 | 0.00 | 83 | 1012.8 | |
| 20260510020022 | 47 | 0.0 | 0.0 | 0.00 | 0.00 | 0.00 | 83 | 1012.6 | |
| 20260510015025 | 47 | 0.0 | 0.0 | 0.00 | 0.00 | 0.00 | 83 | 1012.6 | |
| 20260510014049 | 47 | 0.0 | 0.0 | 0.00 | 0.00 | 0.00 | 83 | 1012.6 | |
| 20260510013052 | 47 | 0.0 | 0.0 | 0.00 | 0.00 | 0.00 | 83 | 1012.6 | |
| 20260510012057 | 47 | 0.0 | 0.0 | 0.00 | 0.00 | 0.00 | 83 | 1012.5 | |
| 20260510011020 | 47 | 0.0 | 0.0 | 0.00 | 0.00 | 0.00 | 82 | 1012.4 | |
| 20260510010024 | 47 | 0.0 | 0.0 | 0.00 | 0.00 | 0.00 | 82 | 1012.4 | |
| 20260510005026 | 47 | 0.0 | 0.0 | 0.00 | 0.00 | 0.00 | 82 | 1012.6 | |
| 20260510004030 | 47 | 0.0 | 0.0 | 0.00 | 0.00 | 0.00 | 82 | 1012.6 | |
| 20260510003035 | 47 | 0.0 | 0.0 | 0.00 | 0.00 | 0.00 | 82 | 1012.5 | |
| 20260510002019 | 47 | 0.0 | 0.0 | 0.00 | 0.00 | 0.00 | 82 | 1012.4 | |
| 20260510001021 | 47 | 0.0 | 0.0 | 0.00 | 0.00 | 0.00 | 82 | 1012.4 | |
| 20260510000039 | 47 | 0.0 | 0.0 | 0.00 | 0.00 | 0.00 | 82 | 1012.5 | |
| 20260509235016 | 47 | 0.0 | 0.0 | 0.00 | 0.00 | 0.00 | 82 | 1012.4 | |
| 20260509234052 | 47 | 0.0 | 0.0 | 0.00 | 0.00 | 0.00 | 81 | 1012.3 | |
| 20260509233017 | 47 | 0.0 | 0.0 | 0.00 | 0.00 | 0.00 | 81 | 1012.2 | |
| 20260509232020 | 47 | 0.0 | 0.0 | 0.00 | 0.00 | 0.00 | 81 | 1012.1 | |
| 20260509231023 | 47 | 0.0 | 0.0 | 0.00 | 0.00 | 0.00 | 81 | 1011.9 | |
| 20260509230027 | 47 | 0.0 | 0.0 | 0.00 | 0.00 | 0.00 | 81 | 1012.1 | |
| 20260509225030 | 47 | 0.0 | 0.0 | 0.00 | 0.00 | 0.00 | 81 | 1012.3 | |
| 20260509224015 | 47 | 0.0 | 0.0 | 0.00 | 0.00 | 0.00 | 81 | 1012.4 | |
| 20260509223018 | 47 | 0.0 | 0.0 | 0.00 | 0.00 | 0.00 | 80 | 1012.4 | |
| 20260509222022 | 48 | 0.0 | 0.0 | 0.00 | 0.00 | 0.00 | 80 | 1012.6 | |
| 20260509221025 | 48 | 0.0 | 0.0 | 0.00 | 0.00 | 0.00 | 80 | 1012.6 | |
| 20260509220028 | 48 | 0.0 | 0.0 | 0.00 | 0.00 | 0.00 | 80 | 1012.5 | |
| 20260509215032 | 48 | 0.0 | 0.0 | 0.00 | 0.00 | 0.00 | 80 | 1012.6 | |
| 20260509214057 | 48 | 0.0 | 0.0 | 0.00 | 0.00 | 0.00 | 80 | 1012.7 | |
| 20260509213020 | 48 | 0.0 | 0.0 | 0.00 | 0.00 | 0.00 | 80 | 1012.8 | |
| 20260509212023 | 48 | 0.0 | 0.0 | 0.00 | 0.00 | 0.00 | 80 | 1012.6 | |
| 20260509211027 | 48 | 0.0 | 0.0 | 0.00 | 0.00 | 0.00 | 80 | 1012.6 | |
| 20260509210030 | 48 | 0.0 | 0.0 | 0.00 | 0.00 | 0.00 | 80 | 1012.6 |